Location: Loup Canal
(41.4930°N, 97.5670°W)
Time: 07:19:07
(UTC-06:00)

Daily predictions for brighter satellites

Satellite Brightness Start Highest point End
(mag) Time Altitude Azimuth Time Altitude Azimuth Time Altitude Azimuth
ALOS 3.9 17:31:22 10° E 17:33:36 13° ENE 17:35:51 10° NNE
Cosmos 1782 4.2 17:30:50 10° SE 17:33:50 20° E 17:36:50 10° NE
Cosmos 1486 Rocket 4.2 17:33:24 10° S 17:38:26 52° ESE 17:43:31 10° NNE
SJ-12 4.1 17:34:31 10° S 17:38:39 83° WSW 17:42:50 10° NNW
SMAP 3.2 17:36:01 10° SSE 17:40:32 54° ENE 17:45:05 10° N
Cosmos 1844 Rocket 3.8 17:36:31 10° SW 17:41:52 43° WNW 17:47:14 10° NNE
Cosmos 1633 3.6 17:42:35 10° NNE 17:45:41 25° ENE 17:48:46 10° SE
BREEZE-M DEB (TANK) 3.9 17:34:41 10° WNW 17:45:52 67° SW 17:49:38 10° SE
Cosmos 1782 Rocket 4.4 17:45:03 10° NNE 17:48:51 28° ENE 17:52:38 10° SE
IDEFIX/ARIANE 42P 4.4 17:44:57 10° SSW 17:49:44 36° W 17:54:32 10° NNW
CZ-4C R/B 3.7 17:44:53 10° NNW 17:50:48 28° NE 17:57:16 10° E
USA 116 4.3 17:46:54 10° NNE 17:51:03 41° E 17:54:42 10° SSE
ERBS 4.0 17:47:54 10° WNW 17:51:05 37° SW 17:54:16 10° SSE
CENTAUR R/B 3.6 17:47:26 10° WSW 17:53:15 43° NW 17:59:53 10° NNE
YAOGAN 1 3.0 17:51:40 10° SE 17:55:41 40° ENE 17:59:45 10° N
COSMO-SKYMED 1 3.5 17:52:12 10° NE 17:55:55 27° E 17:59:35 10° SSE
CSL-04 Debris 4.3 17:57:31 10° SSE 18:02:57 82° WSW 18:08:23 10° NNW
SPOT 3 Rocket 4.2 17:59:46 10° SE 18:04:22 32° ENE 18:08:58 10° N
Cosmos 1833 Rocket 2.8 18:05:42 10° NNW 18:11:12 53° ENE 18:16:42 10° SE
Cosmos 2221 Rocket 3.8 18:12:24 10° SSE 18:16:37 48° E 18:20:53 10° NNE
Cosmos 1703 Rocket 3.5 18:12:28 10° S 18:16:56 80° E 18:21:24 10° N
Cosmos 2297 3.8 18:12:41 10° S 18:18:16 59° ESE 18:23:47 11° NNE
Cosmos 2278 Rocket 2.9 18:16:10 10° SW 18:21:43 56° WNW 18:27:20 10° NNE
Cosmos 2034 Rocket 4.4 18:15:53 10° SSE 18:21:47 42° E 18:27:42 10° NNE
CORIOLIS 4.5 18:16:36 10° S 18:22:02 73° WSW 18:27:30 10° NNW
Intercosmos 25 4.5 18:14:04 10° S 18:22:24 77° E 18:27:23 10° NNE
Meteor 1-28 Rocket 3.8 18:24:43 10° N 18:28:21 55° WNW 18:31:59 10° SSW
NOAA 12 4.3 18:25:28 10° SE 18:30:33 49° ENE 18:35:40 10° N
BREEZE-M R/B 2.8 18:30:15 10° WNW 18:33:01 67° SSW 18:37:03 13° SE
CZ-2C R/B 4.1 18:28:40 10° N 18:33:07 65° WNW 18:37:37 10° SSW
Cosmos 44 Rocket 3.4 18:29:11 10° NNW 18:33:57 52° NE 18:37:32 18° SE
Okean 2 Rocket 3.1 18:29:33 10° N 18:34:02 57° E 18:38:29 10° SSE
GPS 2-05 Rocket1 4.5 18:32:04 10° SW 18:34:29 20° SSE 18:35:12 19° SSE
Meteor 1-11 Rocket 4.0 18:29:12 10° N 18:34:49 45° ENE 18:40:16 10° SSE
Cosmos 1606 3.0 18:31:45 10° SSW 18:35:29 66° W 18:39:15 10° N
Cosmos 1441 Rocket 3.6 18:32:20 10° SSE 18:36:05 42° E 18:36:58 36° ENE
Cosmos 405 3.2 18:34:58 10° N 18:38:28 46° ENE 18:41:56 10° SSE
Landsat 4 4.3 18:36:55 10° N 18:40:39 58° WNW 18:44:22 10° SSW
Cosmos 292 Rocket 3.7 18:36:22 10° NNW 18:41:05 60° ENE 18:45:45 10° SSE
MTI 4.3 18:40:24 14° N 18:43:04 59° WNW 18:46:14 10° SSW
SKYMED 2 3.5 18:39:44 10° NNE 18:44:06 88° WNW 18:48:26 10° SSW
CZ-4 R/B 3.0 18:41:20 10° SSW 18:44:53 35° W 18:48:26 10° NNW
SL-27 R/B 4.2 18:41:56 10° NW 18:44:58 32° WSW 18:48:00 10° SSW
Lacrosse 5 4.0 18:43:35 10° NNW 18:46:08 14° N 18:47:38 12° NNE
EO 1 Del DPAF 3.2 18:43:30 16° N 18:46:33 84° WNW 18:50:22 10° SSW
MONITOR-E 4.2 18:45:00 10° S 18:48:01 74° W 18:51:04 10° NNW
Cosmos 1464 Rocket 3.9 18:43:01 10° S 18:49:09 87° W 18:55:20 10° N
Cosmos 540 Rocket 3.8 18:48:23 10° NNW 18:53:32 66° WSW 18:58:36 10° S
MOS 1 4.4 18:48:12 10° S 18:53:53 76° WSW 18:59:36 10° NNW
Cosmos 44 3.2 18:52:59 10° NNW 18:57:42 89° WSW 19:01:17 19° SSE
Cosmos 968 Rocket 3.5 18:53:19 10° S 18:58:22 57° ESE 18:59:38 44° NE
ERS-2 3.5 18:57:36 10° S 19:01:05 40° W 19:04:35 10° NNW
Cosmos 2082 Rocket 2.6 18:56:01 10° NNW 19:01:38 63° WSW 19:07:11 10° S
USA 234 3.2 18:58:41 33° ENE 19:01:48 72° SE 19:08:19 10° SW
Cosmos 1602 3.8 18:59:30 10° NNW 19:03:20 74° W 19:07:10 10° S
Okean 1-7 4.3 19:01:07 10° SSW 19:05:16 42° WNW 19:09:29 10° N
Meteor 2-20 Rocket 4.3 19:04:02 10° N 19:10:09 73° E 19:16:12 10° SSE
ALOS 2.5 19:05:49 10° S 19:10:27 69° WSW 19:15:08 10° NNW
Cosmos 405 Rocket 3.4 19:06:49 10° SSW 19:10:31 52° WNW 19:11:48 34° NNW
FengYun 1-2 T 4.0 19:22:02 31° SSE 19:24:49 79° ENE 19:30:24 10° N
Meteor 1-5 Rocket 4.3 19:32:26 10° NNW 19:36:53 62° NNW 19:36:53 62° NNW
Meteor 1-27 Rocket 4.5 19:32:07 10° SSW 19:37:53 54° WNW 19:43:42 10° N
CZ-4C R/B 2.9 19:32:53 10° NW 19:40:10 84° WSW 19:43:23 40° SSE
USA 229 DEB 3.6 19:46:32 10° SSW 19:52:44 76° S 19:52:44 76° S
USA 229 3.6 19:46:38 10° SSW 19:52:47 75° S 19:52:47 75° S
Cosmos 2369 Rocket 4.0 19:51:35 10° SSW 19:53:19 21° S 19:53:19 21° S
USA 234 4.5 20:46:02 36° WNW 20:46:02 36° WNW 20:50:33 10° W
